Location: Wilsall
(45.9940°N, 110.6590°W)
Time: 01:24:21
(UTC-06:00)

Daily predictions for brighter satellites

Satellite Brightness Start Highest point End
(mag) Time Altitude Azimuth Time Altitude Azimuth Time Altitude Azimuth
USA 215 4.5 03:46:16 10° NE 03:50:01 36° ENE 03:50:01 36° ENE
ADEOS II 4.3 03:56:55 10° NE 03:59:49 21° ENE 03:59:49 21° ENE
CENTAUR R/B 4.5 04:05:32 22° N 04:05:32 22° N 04:10:21 10° NE
USA 229 DEB 4.4 04:13:53 48° NE 04:13:53 48° NE 04:18:45 10° NE
USA 229 4.4 04:13:58 48° NE 04:13:58 48° NE 04:18:50 10° NE
USA 267 3.7 04:18:29 10° ESE 04:23:31 55° E 04:23:31 55° E
Cosmos 2297 Rocket 4.3 04:26:58 11° N 04:31:02 23° NE 04:35:28 10° E
Cosmos 1943 Rocket 3.9 04:39:22 24° N 04:39:22 24° N 04:41:35 10° NNE
Nadezhda 1 Rocket 4.5 04:50:58 51° N 04:50:58 51° N 04:55:35 10° N
Okean O Rocket 3.4 04:51:15 10° NE 04:55:08 29° E 04:56:09 27° ESE
Cosmos 1269 Rocket 4.4 05:02:48 61° NE 05:03:07 62° ENE 05:08:22 10° SSE
Lacrosse 5 3.6 05:04:11 23° N 05:04:11 23° N 05:07:50 10° NE
Meteor 2-5 Rocket 3.9 05:14:08 34° S 05:16:46 73° E 05:22:32 10° NNE
Cosmos 1125 Rocket 3.6 05:19:38 67° SSE 05:20:15 76° ESE 05:25:34 10° NNE
SJ 16-02 1.4 05:29:11 73° ENE 05:29:11 73° ENE 05:33:18 10° NNE
SL-8 Rocket 4.0 05:25:46 10° N 05:32:08 83° E 05:38:28 10° S
PSLV R/B 3.9 05:28:15 10° NNE 05:31:44 58° N 05:31:44 58° N
USA 215 3.6 05:29:24 10° NE 05:35:41 51° NNW 05:37:22 42° WNW
Cosmos 2369 Rocket 4.1 05:39:13 14° NNW 05:39:13 14° NNW 05:41:16 10° N
Cosmos 2227 Rocket 2.3 05:33:22 12° NNW 05:38:42 74° ENE 05:44:22 10° SSE
ADEOS II 2.2 05:35:58 10° N 05:40:45 51° WNW 05:40:45 51° WNW
Cosmos 1048 Rocket 4.3 05:46:58 44° SW 05:46:58 44° SW 05:51:05 10° S
Cosmos 1809 Rocket 4.4 05:41:17 10° NNW 05:47:17 57° W 05:53:16 10° S
MOS 1-B 4.4 05:41:49 10° N 05:47:28 55° WNW 05:49:03 42° WSW
Cosmos 2251 Rocket 4.1 05:53:02 10° NNW 05:58:22 58° ENE 06:03:39 10° SE
NOSS 3-1 (C) 3.7 05:56:40 38° W 05:58:26 49° NW 06:04:55 10° NNE
Meteor 1-24 Rocket 3.7 05:54:44 10° SSW 06:00:43 80° W 06:06:36 10° N
IRS-1C Rocket 4.0 05:57:59 10° NNE 06:03:18 87° WNW 06:08:35 10° SSW
CZ-2C R/B 3.7 05:59:27 10° SSE 06:04:12 86° WSW 06:08:54 10° NNW
NOSS 3-1 (A) 3.6 06:04:08 33° WSW 06:06:44 56° NW 06:13:20 10° NE
Meteor 1-31 Rocket 2.6 06:03:08 10° NNE 06:06:58 89° ESE 06:10:46 10° SSW
Cosmos 2218 Rocket 3.9 06:00:58 10° NNW 06:07:10 66° W 06:13:24 10° S
Intercosmos 24 4.0 06:03:16 10° NNW 06:07:38 48° W 06:11:08 10° SSW
USA 267 3.7 06:02:19 10° SSE 06:08:19 38° SW 06:10:53 28° W
CZ-4B R/B 4.0 06:09:43 10° N 06:14:14 82° WNW 06:18:43 10° SSW
In-Cosmos 22 4.1 06:09:13 10° SSW 06:14:51 71° WNW 06:20:38 10° N
Cosmos 2297 Rocket 2.1 06:10:01 10° NNW 06:15:40 71° WSW 06:21:16 10° SSE
ATLAS 3B R/B 3.5 06:09:29 10° NNW 06:16:02 48° NE 06:22:20 10° ESE
Cosmos 1908 3.1 06:13:23 10° N 06:17:15 90° NNE 06:21:04 10° S
MTI 3.6 06:16:16 10° SSE 06:19:30 85° W 06:22:46 10° NNW
Cosmos 1607 4.0 06:13:57 10° NW 06:20:29 86° SW 06:26:57 10° SSE
Meteor PRIRODA 3.8 06:17:34 10° N 06:21:15 52° WNW 06:24:29 13° SSW
Cosmos 1943 Rocket 4.1 06:20:54 12° NW 06:21:20 12° NW 06:23:21 10° NNW
ATLAS CENTAUR R/B 2.9 06:18:31 10° NNW 06:21:54 31° NE 06:25:25 10° ESE
USA 40 PKM 4.3 06:21:26 24° NW 06:23:22 71° NE 06:27:01 10° ESE
Cosmos 1697 Rocket 3.6 06:18:44 10° S 06:24:11 51° ESE 06:29:41 10° NE
Cosmos 2082 3.7 06:22:04 10° NNW 06:27:39 59° WSW 06:33:09 10° S
Nadezhda 3 Rocket 4.4 06:21:43 10° S 06:27:58 70° E 06:34:12 10° NNE
Landsat 4 4.0 06:25:02 10° S 06:28:38 42° W 06:32:14 10° NNW
Cosmos 2084 Rocket 3.3 06:26:49 19° SW 06:29:48 71° NW 06:33:51 10° NE
EO 1 Del DPAF 3.1 06:26:05 10° S 06:29:54 79° WSW 06:33:47 10° NNW
Okean O Rocket 2.4 06:27:37 10° N 06:31:28 30° WNW 06:33:36 20° WSW
Cosmos 1356 4.4 06:32:17 27° WNW 06:32:17 27° WNW 06:35:16 10° NNW
Cosmos 2221 2.4 06:29:09 10° NNW 06:33:34 78° W 06:37:56 10° S
Cosmos 2263 Rocket 4.5 06:31:38 10° N 06:35:48 21° NE 06:39:55 10° E
NOSS 2-3 (C) 4.0 06:31:23 10° SW 06:36:07 85° SE 06:41:45 10° NE
CZ-2C R/B 4.1 06:31:59 10° NNE 06:36:41 39° E 06:41:27 10° SSE
Cosmos 1300 3.8 06:33:20 10° N 06:37:03 46° ENE 06:40:44 10° SSE
Meteor 1-28 Rocket 3.4 06:33:54 10° S 06:37:34 46° W 06:41:17 10° NNW
Cosmos 1980 Rocket 3.6 06:34:36 10° S 06:39:47 40° ESE 06:45:02 10° NE
CZ-4B R/B 3.7 06:38:36 10° N 06:43:37 38° WNW 06:48:43 10° SW
Feng Yun 1-1 Rocket 4.3 06:39:31 10° NNE 06:45:11 85° WNW 06:50:59 10° SSW
COSMO-SKYMED 1 2.5 06:42:13 10° S 06:46:32 69° WSW 06:50:53 10° NNW
PAYLOAD A 4.3 06:43:05 10° NNE 06:47:49 66° ESE 06:52:39 10° S
Lacrosse 5 3.3 06:43:32 10° NW 06:48:01 30° NNE 06:52:29 10° E
Okean-O 2.6 06:50:12 10° N 06:54:38 67° WNW 06:59:01 10° SSW
Cosmos 2369 3.8 06:49:32 10° SW 06:55:04 56° WNW 07:00:39 10° NNE
USA 238 DEB 4.0 06:48:37 10° NW 06:55:44 74° NE 07:02:54 10° SE
USA 238 4.0 06:48:42 10° NW 06:55:50 74° NE 07:03:00 10° SE
Cosmos 1726 2.1 06:55:26 10° NNW 06:59:03 57° W 07:02:39 10° S
Meteor 1-21 Rocket 4.2 06:54:12 10° SSW 06:59:55 71° WNW 07:05:35 10° N
GRACE-1 4.4 07:00:28 10° N 07:03:00 57° E 07:05:31 10° S
Cosmos 1674 3.4 07:00:32 10° SW 07:03:52 31° WNW 07:07:14 10° N
DEBRIS 3.4 06:59:44 11° W 07:06:22 54° N 07:09:03 10° ENE
SJ 16-02 3.1 07:06:15 11° WNW 07:08:05 14° NW 07:10:21 10° NNW
Cosmos 1328 4.2 07:05:50 10° S 07:09:49 69° E 07:13:49 10° NNE
Thor Agena Rocket 3.6 07:05:26 10° SSE 07:10:42 90° WSW 07:15:56 10° NNW
Cosmos 1535 Rocket 4.5 07:06:06 10° NNW 07:12:19 76° W 07:18:33 10° S
Cosmos 1076 Rocket 3.7 07:09:29 10° SSW 07:13:43 51° WNW 07:17:57 10° N
OPS 6432 4.3 07:12:36 10° SW 07:16:08 87° SE 07:19:11 10° NE
Cosmos 2278 4.2 07:12:18 10° SW 07:17:37 40° NW 07:22:58 10° NNE
USA 215 4.2 07:12:10 10° ENE 07:17:54 34° N 07:23:39 10° WNW
NOAA 6 4.3 07:13:34 10° N 07:18:30 46° WNW 07:23:22 10° SW
NOSS 2-3 (D) 4.2 07:14:09 10° WSW 07:18:50 52° NW 07:24:27 10° NNE
Cosmos 2227 Rocket 3.6 07:18:23 10° WNW 07:22:06 18° W 07:25:48 10° SW
IDEFIX/ARIANE 42P 2.6 07:18:10 10° N 07:23:23 67° WNW 07:28:32 10° SSW
